RH
70 61 56 54 48 40 40 37 42 49 48 42 41 38 34 31 30 33 28 17 26 33 12 12 8 6 6 6 7 8 10 12 14 16 16 16 20 22 21 24 24 25 27 30 36 36 55 72 75 74 78 69 57 54
57 76 75 67 56 42 28 39 44 40 52 44 46 44 40 29 27 29 26 16 27 33 15 7 8 6 6 7 8 9 10 11 13 14 14 15 16 22 23 30 34 30 28 28 31 34 42 56 77 79 82 92 82 63
75 88 76 75 74 46 42 46 43 49 53 48 49 49 39 33 27 34 20 15 24 20 17 10 9 7 7 8 8 9 11 12 13 15 17 18 17 21 26 25 26 40 35 32 34 31 33 42 56 85 84 80 93 96
96 92 87 73 82 65 54 48 58 52 50 46 51 46 39 37 29 30 19 13 28 23 22 15 8 6 7 8 9 10 11 12 13 15 17 19 21 25 27 32 37 42 43 47 46 33 36 38 45 58 82 91 87 94
97 98 94 86 81 75 75 66 59 56 52 50 46 42 39 35 34 29 20 16 22 27 19 13 11 7 7 9 9 11 12 12 13 14 17 20 21 24 28 29 45 36 37 29 39 31 48 39 42 46 60 85 95 93
100 99 100 100 100 90 90 81 73 65 62 45 43 36 28 33 30 22 15 18 26 30 25 15 11 8 7 8 9 11 12 12 13 16 17 17 20 25 28 28 29 32 26 32 35 24 46 44 39 41 50 55 88 96
100 100 100 100 100 100 100 92 83 65 62 55 45 37 29 27 28 29 16 17 24 26 35 30 25 11 9 8 9 11 12 12 13 14 15 17 18 18 19 24 26 21 19 23 32 27 32 38 36 35 38 44 57 86
100 100 100 100 100 100 100 99 92 83 68 62 50 42 38 34 28 24 14 16 20 26 30 42 48 36 11 8 9 11 12 12 12 12 14 13 14 18 21 14 14 22 20 16 21 20 27 28 24 33 34 37 44 60
100 100 100 100 100 100 100 100 98 88 80 69 55 42 38 29 25 19 11 16 26 28 28 43 53 47 14 10 9 10 11 12 12 13 12 12 13 13 16 10 13 18 13 11 12 16 14 20 27 27 27 32 38 46
100 100 100 100 100 100 100 100 100 95 82 70 56 51 45 34 28 13 12 20 27 19 30 40 48 74 15 12 10 10 12 12 12 12 11 10 10 12 14 11 10 12 12 10 12 14 16 17 22 24 27 31 34 41
100 100 100 100 100 100 100 100 100 90 88 64 62 55 49 35 33 23 22 28 39 28 22 31 43 70 16 13 11 11 12 12 12 12 12 10 11 12 14 11 14 11 10 11 12 13 16 19 23 26 28 28 33 34
100 100 100 100 100 100 100 100 97 89 90 69 70 57 59 52 34 28 36 48 48 43 30 26 37 63 17 15 13 11 11 12 12 12 11 10 13 14 16 13 12 12 10 9 11 11 11 17 23 24 25 31 34 37
100 100 100 100 100 100 98 100 95 84 79 72 74 70 51 44 38 45 44 48 72 57 33 20 25 18 14 15 14 12 11 11 11 10 10 11 12 14 15 18 16 11 11 7 8 11 16 23 24 27 28 31 34 39
100 100 100 100 100 100 99 100 100 88 81 76 74 73 60 46 56 51 59 75 60 65 23 25 14 14 13 14 14 12 11 10 8 9 11 12 12 15 16 16 19 16 13 9 6 7 12 17 18 22 28 31 35 40
100 100 100 100 100 100 100 100 97 86 74 75 74 74 61 59 61 58 64 59 62 54 21 25 13 11 12 14 15 13 10 9 9 9 10 12 14 13 18 18 19 17 16 12 10 7 8 12 18 24 28 32 34 36
100 100 100 100 100 100 100 80 87 76 68 72 69 69 73 64 59 57 56 59 69 58 28 23 11 11 12 11 14 13 10 9 9 8 9 11 15 15 16 20 20 20 17 16 14 10 9 13 16 21 27 31 33 34
100 100 100 100 100 100 95 90 82 85 73 68 87 73 61 62 62 59 61 67 66 38 40 23 10 9 10 13 10 12 10 9 8 7 8 10 13 15 14 16 20 22 20 20 18 16 14 14 19 24 28 32 35 37
100 100 100 100 100 97 90 90 88 77 79 94 92 80 66 64 68 58 73 73 71 36 37 33 10 8 7 9 10 9 9 8 7 6 6 9 10 13 14 15 16 21 24 24 23 24 21 19 19 22 26 30 34 38
100 100 100 100 100 94 90 81 100 100 100 95 85 72 54 60 58 64 64 66 72 57 31 45 10 7 7 7 7 6 6 7 6 5 5 6 9 10 12 14 17 18 23 27 26 24 24 25 26 26 24 23 27 32
100 100 100 100 98 100 100 100 100 100 97 88 79 58 68 67 64 70 61 78 67 60 46 25 8 6 6 6 5 4 3 4 4 4 4 5 7 9 10 12 14 18 19 25 27 25 25 28 29 30 31 30 27 27
100 100 96 100 100 100 100 100 100 96 90 92 75 68 61 67 73 69 66 72 56 70 35 8 7 4 4 4 3 3 3 3 4 4 4 4 6 7 8 10 12 14 17 19 26 27 25 25 30 33 37 39 38 37
100 100 100 100 100 100 100 100 100 100 100 87 71 63 73 71 66 68 69 56 72 39 7 7 4 3 3 3 2 3 3 3 3 4 4 4 5 6 7 8 10 12 14 16 21 28 30 31 30 27 27 31 34 38
100 100 100 99 100 100 100 100 95 88 72 71 67 73 76 74 71 57 62 52 21 9 8 5 3 3 3 2 2 2 3 4 4 4 4 4 4 5 6 7 10 11 12 14 18 24 27 28 31 34 34 36 36 35
100 100 100 100 100 100 100 98 77 71 73 76 81 71 68 52 45 36 44 16 10 7 4 3 3 3 2 2 3 3 3 4 4 4 5 4 4 5 6 6 8 10 11 13 15 19 26 28 28 27 30 32 34 37
100 100 100 100 100 100 96 88 84 78 67 64 60 64 68 39 45 19 8 8 5 3 2 3 3 3 3 3 3 3 3 4 4 4 5 5 5 5 6 6 7 8 10 11 14 18 23 28 30 30 29 28 30 32
100 100 100 100 94 80 79 82 74 65 60 58 62 45 45 27 12 6 5 3 3 3 3 3 3 3 3 3 3 3 3 4 4 5 5 5 5 6 6 6 7 8 10 11 13 17 21 25 28 31 31 30 28 28
100 100 94 76 69 77 71 65 55 64 50 43 37 23 11 8 6 4 2 2 2 3 3 3 3 3 2 3 3 3 3 3 4 4 5 5 5 6 6 6 7 8 10 11 12 15 19 23 27 30 30 29 28 26
98 86 64 52 59 73 67 46 36 38 22 10 10 9 6 4 3 2 2 3 3 3 3 3 2 2 2 2 2 3 3 3 3 3 4 5 6 6 7 6 7 8 9 11 13 15 17 20 24 26 27 27 27 26
80 70 56 49 34 21 10 9 10 9 8 7 5 3 3 3 2 2 3 3 3 3 2 2 2 2 2 2 2 2 3 3 3 3 4 4 6 7 7 6 7 8 9 11 13 15 17 19 21 23 24 25 26 25
14 12 11 10 9 9 8 8 8 5 4 2 2 2 3 2 2 3 2 2 3 2 2 2 2 2 2 2 3 3 4 4 4 4 4 5 6 6 6 6 6 8 9 11 14 15 17 18 20 22 22 22 23 24
8 8 10 10 9 7 5 4 3 3 3 3 2 2 2 4 5 2 2 2 2 2 2 2 2 2 3 3 3 3 4 4 4 5 5 5 5 6 6 6 7 8 9 12 14 16 16 18 19 20 20 20 21 21
11 9 7 5 4 3 3 3 3 3 2 2 2 2 4 4 3 2 2 2 2 2 2 3 4 4 4 4 4 4 4 4 4 5 6 6 6 6 7 8 8 9 11 12 14 15 16 17 17 18 18 19 19 19
5 5 4 4 4 4 3 3 3 3 2 2 3 3 3 2 2 2 2 2 3 3 3 4 4 4 4 4 4 4 4 4 4 5 6 7 7 8 9 9 10 11 12 14 15 15 15 16 16 16 17 17 16 16
Wind_Speed
60 62 64 65 68 67 69 70 73 75 81 83 86 89 94 96 97 99 98 91 100 101 78 80 62 54 48 39 27 21 18 21 21 21 24 26 25 25 25 25 23 24 24 23 25 24 21 21 23 23 24 27 31 34
59 62 64 67 72 73 72 73 78 78 82 86 90 92 96 97 100 101 103 92 99 104 83 77 66 56 47 39 27 21 20 19 22 22 23 24 24 25 26 26 25 25 26 26 27 27 25 24 23 23 23 26 27 29
64 65 66 68 73 76 76 79 82 84 85 88 92 96 97 100 102 106 104 94 102 96 91 79 60 52 43 36 29 23 21 20 23 21 24 26 26 26 28 30 27 28 28 29 30 30 28 27 26 26 25 25 27 28
66 66 69 70 71 79 81 83 86 90 89 92 96 99 99 101 103 105 100 99 107 99 93 86 61 51 42 34 29 25 22 21 23 24 26 28 29 29 30 31 29 33 32 33 33 32 31 32 30 30 28 27 27 26
65 65 72 74 75 80 85 88 90 92 93 97 99 101 100 103 104 105 103 101 101 106 96 88 67 53 45 35 28 25 23 23 23 26 27 31 32 31 34 33 36 42 39 36 36 31 34 34 35 33 31 30 29 28
67 67 64 74 82 82 86 90 93 97 99 100 101 105 103 105 106 105 99 103 102 105 108 97 75 57 50 40 31 25 24 24 24 27 28 31 32 32 31 33 43 43 39 37 40 35 35 37 36 36 36 34 33 32
67 71 74 78 80 86 88 92 97 99 101 102 104 107 106 108 107 109 105 104 105 106 109 104 96 76 60 44 34 29 26 25 25 26 26 30 33 31 31 36 46 42 43 41 42 42 39 41 39 38 37 37 37 36
72 74 79 80 83 87 90 94 99 102 104 104 106 108 112 110 109 110 104 105 107 111 110 105 101 96 68 51 40 32 29 28 28 27 27 29 29 31 34 36 35 38 45 45 45 45 46 44 40 41 39 37 38 39
79 78 81 82 86 88 90 97 102 103 105 108 110 110 111 112 109 108 103 106 116 114 104 106 105 107 71 56 44 37 32 30 31 31 29 29 31 31 36 31 28 40 44 40 35 43 40 42 42 43 42 40 39 40
81 82 86 86 90 91 93 97 101 104 107 112 112 114 117 114 115 107 108 113 116 111 116 106 104 115 72 56 46 42 39 34 33 34 31 32 32 28 38 29 27 30 36 34 34 39 40 39 41 42 42 42 43 42
85 85 87 91 93 93 97 99 104 109 110 115 116 118 120 117 118 116 117 119 121 114 111 106 106 113 77 58 48 43 41 39 37 35 34 32 32 31 35 29 28 30 28 27 33 37 39 41 43 42 42 44 42 42
86 88 89 95 94 98 102 104 106 109 112 116 118 118 120 124 121 120 121 123 128 128 121 105 104 108 75 58 51 44 41 40 41 37 34 31 30 32 32 33 27 27 27 29 34 34 29 35 41 44 43 42 44 44
89 87 96 97 97 101 104 103 108 110 113 115 117 118 121 120 123 125 129 128 133 136 126 100 105 83 69 58 51 47 44 42 41 38 34 34 30 32 29 29 31 27 25 29 34 36 39 42 42 45 45 44 45 46
94 95 94 99 100 102 107 107 112 114 116 117 118 120 124 123 127 127 130 135 136 134 120 115 94 78 64 56 52 48 46 45 42 37 35 35 33 30 29 27 27 29 26 26 33 35 37 40 44 45 45 47 47 48
95 98 101 102 102 107 107 112 116 116 119 116 119 124 125 127 128 130 132 134 135 130 118 115 101 75 56 57 52 49 49 46 42 39 35 33 35 31 30 28 28 28 27 27 28 34 37 39 42 45 45 45 46 47
101 100 101 104 104 109 115 118 119 122 121 123 126 125 127 130 129 131 134 136 135 131 122 115 91 75 65 49 51 47 49 47 43 38 34 33 32 36 32 31 30 29 30 29 28 30 33 37 39 40 42 44 45 44
104 104 105 108 107 111 118 119 125 122 128 127 127 131 132 133 134 134 136 136 134 123 123 112 88 70 58 57 44 47 47 46 43 39 34 36 33 37 38 35 33 33 31 29 29 29 30 32 35 37 39 40 41 41
106 106 108 110 116 120 114 118 122 123 123 128 132 137 138 140 136 135 139 137 130 120 119 112 89 73 59 52 49 43 44 46 43 40 36 35 38 37 40 40 38 34 33 33 31 30 32 33 35 37 39 41 42 44
110 111 113 118 119 119 122 122 120 127 131 134 138 141 140 141 139 139 142 134 126 126 117 112 88 74 63 55 49 48 41 44 44 40 37 34 39 39 39 40 41 38 34 35 35 35 34 34 35 36 38 40 42 43
114 117 119 119 120 122 124 126 132 136 137 136 141 139 142 144 142 145 134 137 135 128 120 103 83 70 61 56 48 47 43 41 42 41 37 36 39 42 40 41 42 42 39 37 38 37 36 34 32 34 35 36 38 41
120 123 121 124 127 133 134 136 138 140 139 139 140 143 142 145 149 143 138 139 127 138 112 85 78 64 56 54 49 44 43 40 38 40 37 37 40 44 42 41 43 43 42 41 39 38 37 37 35 34 34 34 35 36
122 126 129 130 127 131 133 135 139 140 141 141 144 143 144 145 141 141 138 130 138 118 87 81 70 55 57 55 47 41 40 37 36 37 39 39 40 44 45 43 44 43 43 42 40 40 38 38 38 37 36 35 35 34
136 135 133 132 132 137 139 139 141 144 144 144 143 146 147 143 140 132 131 125 107 90 85 77 65 55 57 52 45 40 37 34 35 36 39 41 40 42 44 43 44 43 42 41 41 41 39 39 40 38 37 37 36 34
140 137 136 139 140 142 144 144 145 146 146 148 148 144 137 130 124 118 120 98 87 82 72 66 64 59 53 45 42 37 33 33 35 35 37 40 40 39 41 42 43 43 43 40 41 39 39 40 40 38 37 36 36 36
139 140 139 138 142 147 149 148 148 148 144 141 133 133 130 118 121 102 85 81 76 68 64 61 59 51 44 41 37 32 30 33 34 33 34 36 37 37 37 39 41 42 41 39 39 39 38 38 38 38 38 38 37 37
142 143 144 148 151 148 146 146 144 140 132 128 125 119 120 109 96 84 77 69 64 62 58 54 52 46 40 39 33 29 30 31 31 31 31 33 32 34 35 36 38 40 40 38 38 38 38 37 37 39 39 39 39 37
146 146 147 144 140 140 137 133 128 133 123 121 117 104 93 85 79 75 63 60 58 53 49 45 43 41 36 35 34 32 34 33 31 30 28 30 29 31 33 34 36 37 39 38 38 38 37 36 37 38 39 39 38 37
144 142 136 128 127 131 130 120 115 115 104 92 87 82 74 72 67 59 53 54 50 46 45 44 42 41 39 36 33 34 37 37 34 30 27 25 26 29 32 33 33 35 37 36 37 37 37 36 37 37 37 37 37 38
134 129 122 120 109 101 95 89 88 85 78 74 69 64 60 60 57 50 49 45 40 41 44 43 42 38 40 36 35 35 34 34 34 29 25 23 24 27 31 32 33 34 34 35 36 35 35 35 34 34 35 35 35 37
97 96 94 92 87 83 80 74 72 67 63 61 57 54 53 51 49 46 39 37 36 39 39 37 33 28 29 28 29 29 28 27 27 25 23 22 23 26 29 30 31 32 32 32 32 32 32 32 31 32 32 33 34 35
81 80 77 73 69 70 68 64 60 55 54 54 54 47 38 35 50 44 21 30 36 34 28 26 28 26 27 27 27 25 21 20 19 18 19 19 21 23 24 26 28 27 27 28 29 28 28 29 29 30 30 31 32 33
65 65 61 60 60 60 59 55 53 52 51 49 43 34 35 39 43 37 28 29 30 22 23 22 22 22 24 22 21 19 21 19 13 11 12 15 17 17 19 22 24 25 25 25 25 25 25 25 25 26 27 29 31 33
55 55 54 55 57 56 53 49 47 44 45 41 35 33 34 33 29 26 22 19 18 21 19 19 20 18 16 16 18 19 17 17 17 14 12 11 11 13 17 19 21 21 21 21 21 21 22 23 24 25 26 27 29 30
Wind_Direction
271 273 278 284 288 293 297 302 309 314 316 321 324 327 330 333 338 343 344 351 354 356 342 345 350 344 336 326 309 289 268 255 254 251 252 254 255 257 256 253 251 250 251 254 256 254 248 245 250 250 249 246 244 242
272 280 284 288 291 294 298 306 309 313 317 320 323 325 326 330 335 340 343 350 352 357 350 339 349 344 337 322 310 288 267 261 257 255 254 254 252 250 251 249 250 250 248 248 249 253 252 248 245 246 247 248 250 244
275 281 284 291 296 297 303 305 307 312 316 318 320 322 326 329 333 339 341 352 354 0 353 344 348 343 338 326 310 289 272 261 261 264 262 259 260 253 249 251 247 245 249 251 249 249 251 251 248 243 244 244 244 247
276 282 288 290 292 296 301 304 308 309 313 316 318 320 325 327 332 337 340 347 354 358 355 348 344 342 337 329 314 297 281 268 264 262 261 261 263 261 260 258 255 253 244 242 246 244 246 248 246 246 243 245 247 244
278 285 286 290 293 295 301 303 305 309 311 314 316 319 323 327 331 335 340 348 354 358 356 353 352 344 337 331 319 304 287 274 270 267 265 264 262 261 260 258 256 252 249 247 244 243 244 244 246 247 246 244 245 248
277 282 283 284 290 294 299 302 304 305 309 312 316 317 322 325 328 334 340 347 349 356 357 357 355 345 338 332 323 307 292 281 275 271 269 271 271 265 266 262 256 257 254 249 251 244 239 244 243 242 245 246 244 244
276 278 280 284 288 294 296 299 301 304 308 312 313 316 320 325 327 332 338 346 350 351 355 356 358 347 341 333 322 312 298 288 282 278 276 273 270 268 262 254 257 256 258 253 248 248 245 242 242 245 243 244 244 243
273 275 278 284 287 290 295 299 300 303 305 309 311 316 319 323 328 331 336 345 347 352 354 354 355 351 342 333 323 311 305 294 287 283 278 276 277 276 274 262 259 255 253 254 250 249 244 245 245 244 244 242 243 245
271 273 276 280 285 289 293 295 298 301 304 306 308 313 317 320 326 330 335 342 348 348 350 351 351 349 340 333 323 312 303 297 290 285 280 276 272 274 276 268 255 251 258 260 254 251 251 247 244 245 243 241 242 243
268 272 276 280 284 288 290 293 295 299 303 305 309 312 314 318 323 332 336 339 344 348 348 348 350 347 338 332 323 314 306 301 295 290 286 283 281 280 279 282 274 256 258 253 246 243 244 243 244 246 247 246 243 243
271 273 276 279 282 287 288 291 294 298 302 304 308 310 314 317 324 324 330 337 337 341 342 344 346 346 337 328 322 316 308 302 297 291 288 286 285 284 281 280 277 269 259 249 239 236 236 239 240 241 245 247 249 246
268 272 274 276 282 285 288 292 295 298 301 304 307 311 314 317 318 323 326 328 334 337 338 340 342 342 334 325 319 315 311 305 298 296 291 290 283 281 284 283 275 267 261 246 241 243 243 237 239 242 243 245 249 249
267 271 271 277 281 284 288 292 294 296 300 303 306 310 312 316 319 322 324 328 328 331 336 338 339 339 332 323 316 311 309 307 299 297 298 287 285 280 279 279 279 268 255 250 239 233 223 226 230 235 240 242 245 247
266 270 273 276 281 284 287 291 292 295 298 301 303 307 311 314 317 321 322 323 326 331 334 336 338 337 330 322 315 309 306 303 302 302 299 289 282 279 276 274 268 267 261 248 244 239 233 236 236 233 235 238 242 246
265 269 273 277 279 283 286 287 289 293 296 299 303 305 309 311 316 317 320 324 325 330 332 334 335 331 326 323 314 308 304 305 305 301 297 291 280 276 271 269 264 259 257 252 245 237 236 233 234 234 235 238 241 243
268 271 274 277 278 280 282 286 288 292 295 299 302 306 307 310 313 317 319 323 326 326 330 332 329 327 322 321 315 310 304 303 302 297 290 283 274 271 267 264 262 258 256 251 247 242 239 236 234 236 239 241 243 247
266 269 273 277 276 279 284 287 288 292 295 299 303 304 307 310 312 315 318 320 323 325 327 329 324 321 320 319 314 307 303 300 299 295 287 279 268 265 265 260 257 255 253 254 251 245 242 240 238 238 240 243 245 246
267 272 274 275 277 280 283 287 290 291 295 299 301 302 305 307 311 312 314 319 322 323 325 326 320 319 318 318 314 304 295 293 291 289 283 274 267 260 260 260 258 253 252 251 248 244 242 239 238 239 240 243 245 247
268 269 272 275 278 280 282 286 288 290 293 295 298 301 304 307 309 312 312 317 320 321 322 323 315 317 319 319 314 303 292 287 286 283 281 270 262 257 255 253 254 254 250 248 248 248 245 243 242 243 245 246 246 249
267 268 272 275 278 281 283 285 287 288 290 293 296 301 303 305 308 308 315 317 314 317 320 314 313 318 320 316 309 301 295 286 283 281 275 268 258 255 252 250 248 248 249 247 247 245 246 247 248 248 249 250 250 250
266 267 270 273 275 277 280 282 285 288 290 293 297 298 301 302 305 310 313 312 314 315 312 310 313 317 315 308 304 302 297 288 282 278 272 265 258 253 251 248 248 245 244 246 246 247 248 246 245 245 247 248 250 252
265 266 268 272 275 277 280 282 284 287 287 291 294 298 299 302 306 308 310 312 312 308 307 310 312 316 307 304 307 302 295 290 282 276 271 266 255 252 249 246 245 245 242 243 245 244 245 247 249 249 249 249 250 252
262 264 268 272 273 276 279 281 282 285 288 291 294 296 300 303 304 306 310 308 303 303 304 307 310 314 304 306 305 298 295 290 281 276 271 266 258 250 248 245 243 244 243 241 241 242 242 242 243 245 249 253 256 258
262 264 268 270 272 275 277 279 283 286 288 290 293 296 300 302 306 307 304 299 300 300 304 306 307 308 303 304 298 298 293 283 278 274 271 266 259 252 248 245 242 241 242 240 241 242 242 243 243 243 245 247 252 254
262 264 267 270 272 274 277 280 282 285 289 290 294 297 300 302 303 299 295 298 299 302 305 305 303 301 299 296 295 296 287 278 277 275 269 265 260 256 250 245 243 242 241 239 238 240 241 241 241 242 244 246 247 250
263 266 268 269 272 275 279 282 284 286 289 291 294 297 299 298 296 295 297 299 302 303 303 302 300 298 296 292 289 288 276 272 273 273 269 265 260 255 251 246 240 239 241 238 237 237 237 240 240 240 242 245 247 248
264 266 269 272 275 278 282 283 286 288 290 292 293 293 293 292 294 294 299 302 302 304 301 295 291 289 286 283 282 278 271 266 263 262 261 262 257 252 249 245 239 236 238 237 237 238 237 237 239 241 244 246 249 251
265 268 272 275 279 280 281 283 284 287 288 290 290 290 292 293 295 297 302 300 302 297 291 287 283 281 279 276 276 274 270 266 262 259 257 255 252 249 246 243 238 235 235 235 236 236 236 237 240 242 244 247 247 250
266 269 272 273 276 276 280 284 285 285 285 286 288 289 293 297 296 299 299 295 293 287 284 284 285 286 287 288 281 278 277 276 276 270 261 254 245 243 243 241 238 236 235 235 236 237 238 239 242 245 245 246 247 250
265 267 269 272 275 278 279 281 282 284 286 289 293 296 295 295 297 290 291 293 288 280 281 286 292 290 287 289 285 284 282 279 280 276 261 251 247 245 246 245 241 235 234 235 237 238 239 241 243 244 246 248 248 250
266 269 272 273 276 277 279 280 283 288 290 291 289 290 299 302 286 285 292 278 279 288 294 293 298 296 287 287 286 281 273 266 265 265 259 254 249 248 250 250 247 240 237 237 237 238 241 243 244 246 246 248 251 253
268 270 274 276 276 277 281 286 290 289 286 285 289 300 293 281 281 291 285 277 292 299 296 312 315 307 302 298 284 273 265 254 233 240 255 253 249 252 254 251 248 245 241 239 240 243 246 247 248 249 251 252 254 255
273 274 276 276 276 278 283 284 282 283 285 286 289 287 284 282 283 285 290 295 294 295 304 301 298 293 290 287 281 277 250 250 247 228 219 230 245 254 254 251 248 243 240 240 242 244 247 249 251 255 257 260 263 265